Location: Dal�� Lhota
(48.7500°N, 14.0167°E)
Time: 02:57:06
(UTC+00:00)

Transit 2A - Pass Details

Date: 02 August 2021
Orbit: 594 x 964 km, 66.7° (Epoch: 27 September)

Event Time Altitude Azimuth Distance (km) Brightness Sun altitude
Rises 13:20:29 0° 324° (NW) 3,209 9.2 49.2°
Reaches altitude 10° 13:22:46 10° 325° (NW) 2,336 8.6 48.9°
Maximum altitude 13:28:11 87° 55° (NE) 847 7.1 48.2°
Drops below altitude 10° 13:34:10 10° 145° (SE) 2,566 8.8 47.4°
Sets 13:36:46 0° 146° (SE) 3,546 9.4 47.0°
